This demonstration page uses our WeatherBlox Daily Observations layout. Learn more.

Left ArrowRight Arrow

Hourly Observations for June 17, 2019

Temp ( °F °C ) Dew Point ( °F °C ) Humidity (%) Winds ( mph kmh ) Pressure ( in mb ) Visibility ( mi km ) Precip ( " mm )
12:56 am 00:56 Partly Cloudy 73 23 61 16 65 65 ESE 3 6 29.85 1011 10 16 0.00 0.00
1:56 am 01:56 Partly Cloudy 72 22 61 16 69 69 Calm 29.85 1011 10 16 0.00 0.00
2:56 am 02:56 Partly Cloudy 72 22 63 17 73 73 Calm 29.85 1011 10 16 0.00 0.00
3:56 am 03:56 Partly Cloudy 72 22 61 16 69 69 SE 5 7 29.86 1011 10 16 0.00 0.00
4:56 am 04:56 Mostly Clear 70 21 61 16 73 73 ESE 3 6 29.87 1012 10 16 0.00 0.00
5:56 am 05:56 Partly Cloudy 68 20 61 16 78 78 E 5 7 29.87 1012 10 16 0.00 0.00
6:56 am 06:56 Partly Cloudy 70 21 61 16 73 73 SE 5 7 29.89 1012 10 16 0.00 0.00
7:56 am 07:56 Partly Cloudy 72 22 61 16 69 69 SE 5 7 29.90 1013 7 11 0.00 0.00
8:56 am 08:56 Partly Cloudy 73 23 61 16 65 65 SE 5 7 29.91 1013 7 11 0.00 0.00
9:56 am 09:56 Mostly Cloudy 75 24 61 16 61 61 SSE 7 11 29.92 1013 7 11 0.00 0.00
10:56 am 10:56 Mostly Cloudy 77 25 59 15 54 54 SSE 8 13 29.92 1013 7 11 0.00 0.00
11:56 am 11:56 Mostly Cloudy 81 27 57 14 45 45 S 12 19 29.92 1013 7 11 0.00 0.00
12:56 pm 12:56 Mostly Cloudy 82 28 61 16 48 48 S 10 17 29.91 1013 7 11 0.00 0.00
1:56 pm 13:56 Mostly Cloudy 82 28 59 15 45 45 S 8 13 29.90 1012 7 11 0.00 0.00
2:56 pm 14:56 Mostly Cloudy with Light Showers 72 22 64 18 78 78 NNW 15 24 29.91 1013 6 10 0.00 0.03
3:56 pm 15:56 Mostly Cloudy 73 23 64 18 74 74 WNW 7 11 29.89 1012 7 11 0.00 0.00
4:56 pm 16:56 Mostly Sunny 77 25 64 18 65 65 E 3 6 29.87 1012 7 11 0.00 0.00
5:56 pm 17:56 Mostly Sunny 79 26 63 17 58 58 ENE 6 9 29.86 1011 7 11 0.00 0.00
6:56 pm 18:56 undefined N/A N/A N/A ENE 9 15 N/A N/A 0.00 0.00
7:56 pm 19:56 Mostly Cloudy 75 24 61 16 61 61 E 9 15 29.88 1012 7 11 0.00 0.00
8:56 pm 20:56 Partly Cloudy 73 23 61 16 65 65 E 8 13 29.88 1012 7 11 0.00 0.00
9:56 pm 21:56 Mostly Cloudy with Light Showers N/A N/A N/A E 6 9 29.90 1013 6 10 0.00 0.00
10:56 pm 22:56 Mostly Cloudy 72 22 61 16 69 69 VRB 7 11 29.91 1013 7 11 0.00 0.00
11:56 pm 23:56 Partly Cloudy 70 21 61 16 73 73 NW 6 9 29.92 1013 10 16 0.00 0.00

Powered by AerisWeather